Data No,UTC Date,UTC Time,Latitude,Longitude,Course(deg),Temp(degC),Sal(psu)
5854,2003/10/19,4:58:09, 19-56.807N,119-59.929E,228.8,28.62,33.1788
5855,2003/10/19,4:59:09, 19-56.688N,119-59.779E,228.4,28.617,33.1748
5857,2003/10/19,5:01:09, 19-56.441N,119-59.492E,226.6,28.613,33.1722
5858,2003/10/19,5:02:09, 19-56.316N,119-59.350E,231.8,28.614,33.1713
5859,2003/10/19,5:03:09, 19-56.191N,119-59.205E,223.2,28.614,33.1708
5860,2003/10/19,5:04:09, 19-56.071N,119-59.056E,234.6,28.613,33.169
5861,2003/10/19,5:05:09, 19-55.944N,119-58.911E,230.3,28.613,33.1701
5862,2003/10/19,5:06:09, 19-55.821N,119-58.761E,228.7,28.612,33.1707
5863,2003/10/19,5:07:09, 19-55.697N,119-58.614E,227,28.611,33.1686
5864,2003/10/19,5:08:09, 19-55.574N,119-58.469E,224.5,28.609,33.1699
5865,2003/10/19,5:09:09, 19-55.453N,119-58.331E,231.6,28.608,33.1676
5866,2003/10/19,5:10:09, 19-55.336N,119-58.189E,231.6,28.606,33.1694
5867,2003/10/19,5:11:09, 19-55.213N,119-58.045E,238.3,28.605,33.1685
5868,2003/10/19,5:12:09, 19-55.090N,119-57.898E,230.5,28.605,33.1688
5869,2003/10/19,5:13:09, 19-54.967N,119-57.747E,221.7,28.603,33.1681
5870,2003/10/19,5:14:09, 19-54.835N,119-57.602E,222.6,28.6,33.1688
5871,2003/10/19,5:15:09, 19-54.711N,119-57.447E,233.2,28.597,33.1689
5872,2003/10/19,5:16:09, 19-54.586N,119-57.292E,231.4,28.596,33.1699
5873,2003/10/19,5:17:09, 19-54.456N,119-57.144E,228.4,28.595,33.1707
5874,2003/10/19,5:18:09, 19-54.329N,119-56.991E,225,28.592,33.1695
5875,2003/10/19,5:19:09, 19-54.202N,119-56.844E,226,28.593,33.1695
5876,2003/10/19,5:20:09, 19-54.077N,119-56.697E,235.5,28.592,33.1669
5877,2003/10/19,5:21:09, 19-53.951N,119-56.546E,220.2,28.588,33.1663
5878,2003/10/19,5:22:09, 19-53.828N,119-56.394E,231.7,28.589,33.17
5879,2003/10/19,5:23:09, 19-53.695N,119-56.250E,226.6,28.59,33.1707
5880,2003/10/19,5:24:09, 19-53.571N,119-56.102E,235.9,28.588,33.1709
5881,2003/10/19,5:25:09, 19-53.457N,119-55.965E,217.4,28.587,33.1694
5882,2003/10/19,5:26:09, 19-53.345N,119-55.831E,236.3,28.586,33.1724
5883,2003/10/19,5:27:09, 19-53.230N,119-55.691E,228.2,28.586,33.1733
5884,2003/10/19,5:28:09, 19-53.110N,119-55.547E,232.7,28.587,33.1755
5885,2003/10/19,5:29:09, 19-52.989N,119-55.404E,238.8,28.588,33.1736
5886,2003/10/19,5:30:09, 19-52.871N,119-55.258E,232.6,28.588,33.1744
5887,2003/10/19,5:31:09, 19-52.746N,119-55.112E,232.3,28.592,33.1751
5888,2003/10/19,5:32:09, 19-52.621N,119-54.959E,232.8,28.594,33.1759
5889,2003/10/19,5:33:09, 19-52.494N,119-54.812E,229,28.593,33.1742
5890,2003/10/19,5:34:09, 19-52.368N,119-54.655E,238.4,28.591,33.174
5891,2003/10/19,5:35:09, 19-52.245N,119-54.503E,224.9,28.591,33.1726
5892,2003/10/19,5:36:09, 19-52.120N,119-54.359E,223.1,28.587,33.1732
5893,2003/10/19,5:37:09, 19-52.000N,119-54.209E,233.5,28.583,33.1728
5894,2003/10/19,5:38:09, 19-51.875N,119-54.063E,237.4,28.582,33.172
5895,2003/10/19,5:39:09, 19-51.749N,119-53.917E,230.1,28.581,33.1724
5896,2003/10/19,5:40:09, 19-51.629N,119-53.764E,233.6,28.579,33.172
5897,2003/10/19,5:41:09, 19-51.505N,119-53.621E,229.8,28.578,33.1712
5898,2003/10/19,5:42:09, 19-51.383N,119-53.477E,229.2,28.577,33.1706
5899,2003/10/19,5:43:09, 19-51.261N,119-53.327E,229.1,28.578,33.1707
5900,2003/10/19,5:44:09, 19-51.137N,119-53.174E,226.3,28.579,33.1705
5903,2003/10/19,5:47:09, 19-50.763N,119-52.727E,220.2,28.577,33.1694
5904,2003/10/19,5:48:09, 19-50.643N,119-52.576E,230.7,28.575,33.1692
5905,2003/10/19,5:49:09, 19-50.518N,119-52.434E,221.1,28.57,33.1686
5906,2003/10/19,5:50:09, 19-50.401N,119-52.284E,228.1,28.562,33.1678
5907,2003/10/19,5:51:09, 19-50.281N,119-52.141E,222.5,28.562,33.1674
5908,2003/10/19,5:52:09, 19-50.159N,119-52.000E,231.9,28.558,33.1667
5909,2003/10/19,5:53:09, 19-50.037N,119-51.864E,223,28.558,33.1665
5910,2003/10/19,5:54:09, 19-49.915N,119-51.724E,238.5,28.549,33.1664
5911,2003/10/19,5:55:09, 19-49.805N,119-51.573E,224.2,28.549,33.166
5912,2003/10/19,5:56:09, 19-49.678N,119-51.438E,233.5,28.551,33.1663
5913,2003/10/19,5:57:09, 19-49.560N,119-51.292E,230.5,28.547,33.1663
5914,2003/10/19,5:58:09, 19-49.438N,119-51.158E,231.9,28.544,33.1666
5915,2003/10/19,5:59:09, 19-49.319N,119-51.022E,226.2,28.541,33.1666
5916,2003/10/19,6:00:09, 19-49.200N,119-50.880E,228.8,28.54,33.1661
5917,2003/10/19,6:01:09, 19-49.076N,119-50.746E,228.3,28.54,33.166
5918,2003/10/19,6:02:09, 19-48.961N,119-50.599E,223.3,28.536,33.1661
5919,2003/10/19,6:03:09, 19-48.832N,119-50.461E,227.3,28.535,33.1651
5920,2003/10/19,6:04:09, 19-48.711N,119-50.313E,229.9,28.536,33.166
5921,2003/10/19,6:05:09, 19-48.581N,119-50.172E,231.6,28.535,33.1654
5922,2003/10/19,6:06:09, 19-48.459N,119-50.029E,213.1,28.532,33.1656
5923,2003/10/19,6:07:09, 19-48.335N,119-49.890E,225.7,28.53,33.1663
5924,2003/10/19,6:08:09, 19-48.213N,119-49.744E,226,28.526,33.1676
5925,2003/10/19,6:09:09, 19-48.083N,119-49.605E,227,28.527,33.1673
5926,2003/10/19,6:10:09, 19-47.955N,119-49.463E,223.6,28.526,33.1665
5927,2003/10/19,6:11:09, 19-47.827N,119-49.318E,231.1,28.524,33.166
5928,2003/10/19,6:12:09, 19-47.700N,119-49.176E,229.3,28.521,33.1685
5929,2003/10/19,6:13:09, 19-47.578N,119-49.037E,228.6,28.523,33.1689
5930,2003/10/19,6:14:09, 19-47.457N,119-48.898E,229.6,28.519,33.1689
5931,2003/10/19,6:15:09, 19-47.331N,119-48.759E,229.1,28.519,33.1682
5932,2003/10/19,6:16:09, 19-47.207N,119-48.615E,223.7,28.516,33.1686
5933,2003/10/19,6:17:09, 19-47.085N,119-48.466E,228.4,28.518,33.1682
5934,2003/10/19,6:18:09, 19-46.955N,119-48.330E,216.6,28.518,33.1669
5935,2003/10/19,6:19:09, 19-46.836N,119-48.178E,230.8,28.517,33.1646
5936,2003/10/19,6:20:09, 19-46.713N,119-48.037E,207.4,28.516,33.1647
5937,2003/10/19,6:21:09, 19-46.586N,119-47.908E,210.1,28.518,33.1603
5938,2003/10/19,6:22:09, 19-46.441N,119-47.809E,215.5,28.518,33.1585
5939,2003/10/19,6:23:09, 19-46.307N,119-47.690E,225.4,28.516,33.1569
5940,2003/10/19,6:24:09, 19-46.185N,119-47.568E,228.3,28.519,33.1548
5941,2003/10/19,6:25:09, 19-46.069N,119-47.435E,233.5,28.522,33.1554
5942,2003/10/19,6:26:09, 19-45.946N,119-47.297E,226.5,28.524,33.1561
5943,2003/10/19,6:27:09, 19-45.812N,119-47.166E,220.9,28.52,33.1493
5944,2003/10/19,6:28:09, 19-45.681N,119-47.026E,231,28.518,33.1541
5945,2003/10/19,6:29:09, 19-45.552N,119-46.877E,219.6,28.513,33.1528
5946,2003/10/19,6:30:09, 19-45.420N,119-46.734E,232.1,28.51,33.1515
5947,2003/10/19,6:31:09, 19-45.292N,119-46.585E,229.4,28.506,33.1491
5948,2003/10/19,6:32:09, 19-45.161N,119-46.453E,213,28.503,33.1491
5949,2003/10/19,6:33:09, 19-45.035N,119-46.310E,236.9,28.496,33.1497
5950,2003/10/19,6:34:09, 19-44.910N,119-46.166E,223.2,28.496,33.1485
5951,2003/10/19,6:35:09, 19-44.781N,119-46.020E,229.1,28.492,33.148
5952,2003/10/19,6:36:09, 19-44.652N,119-45.874E,225,28.489,33.1483
5953,2003/10/19,6:37:09, 19-44.524N,119-45.725E,231.9,28.489,33.1494
5954,2003/10/19,6:38:09, 19-44.398N,119-45.575E,228.7,28.493,33.1465
5955,2003/10/19,6:39:09, 19-44.263N,119-45.429E,220.4,28.495,33.147
5956,2003/10/19,6:40:09, 19-44.133N,119-45.273E,232.9,28.493,33.1474
5957,2003/10/19,6:41:09, 19-44.005N,119-45.127E,225.5,28.495,33.146
5958,2003/10/19,6:42:09, 19-43.873N,119-44.978E,234.9,28.496,33.1458
5959,2003/10/19,6:43:09, 19-43.747N,119-44.829E,225.3,28.498,33.148
5960,2003/10/19,6:44:09, 19-43.621N,119-44.681E,218.3,28.495,33.146
5961,2003/10/19,6:45:09, 19-43.493N,119-44.532E,223,28.499,33.145
5962,2003/10/19,6:46:09, 19-43.363N,119-44.390E,227,28.499,33.1439
5963,2003/10/19,6:47:09, 19-43.239N,119-44.245E,234.4,28.499,33.1421
5964,2003/10/19,6:48:09, 19-43.115N,119-44.098E,228,28.499,33.1432
5965,2003/10/19,6:49:09, 19-42.993N,119-43.959E,228.7,28.499,33.1423
5966,2003/10/19,6:50:09, 19-42.865N,119-43.820E,218.8,28.499,33.1412
5967,2003/10/19,6:51:09, 19-42.744N,119-43.677E,228.4,28.5,33.1411
5968,2003/10/19,6:52:09, 19-42.620N,119-43.535E,225.1,28.5,33.1413
5969,2003/10/19,6:53:09, 19-42.499N,119-43.385E,228.4,28.5,33.1411
5970,2003/10/19,6:54:09, 19-42.375N,119-43.240E,233.1,28.54,33.1412
5971,2003/10/19,6:55:09, 19-42.255N,119-43.108E,225.5,28.539,33.1413
5972,2003/10/19,6:56:09, 19-42.135N,119-42.973E,234.5,28.53,33.1426
5973,2003/10/19,6:57:09, 19-42.022N,119-42.831E,230.2,28.528,33.1433
5974,2003/10/19,6:58:09, 19-41.905N,119-42.689E,221.3,28.468,33.1438
5975,2003/10/19,6:59:09, 19-41.779N,119-42.547E,226.6,28.457,33.1436
5976,2003/10/19,7:00:09, 19-41.652N,119-42.403E,224,28.45,33.1437
5977,2003/10/19,7:01:09, 19-41.534N,119-42.254E,237.4,28.448,33.1436
5978,2003/10/19,7:02:09, 19-41.407N,119-42.108E,221.4,28.443,33.1445
5979,2003/10/19,7:03:09, 19-41.274N,119-41.962E,229.1,28.436,33.1452
5980,2003/10/19,7:04:09, 19-41.147N,119-41.810E,228.2,28.432,33.1465
5981,2003/10/19,7:05:09, 19-41.014N,119-41.663E,235.6,28.427,33.1468
5982,2003/10/19,7:06:09, 19-40.886N,119-41.508E,221.8,28.424,33.1472
5983,2003/10/19,7:07:09, 19-40.757N,119-41.354E,226.5,28.425,33.1488
5984,2003/10/19,7:08:09, 19-40.629N,119-41.204E,223.1,28.423,33.1492
5985,2003/10/19,7:09:09, 19-40.502N,119-41.063E,218.8,28.416,33.1508
5986,2003/10/19,7:10:09, 19-40.377N,119-40.911E,227.8,28.417,33.1524
5987,2003/10/19,7:11:09, 19-40.250N,119-40.760E,238.9,28.414,33.157
5988,2003/10/19,7:12:09, 19-40.127N,119-40.610E,222.1,28.416,33.1569
5989,2003/10/19,7:13:09, 19-39.995N,119-40.464E,227.7,28.412,33.1538
5990,2003/10/19,7:14:09, 19-39.869N,119-40.306E,228.5,28.409,33.155
5991,2003/10/19,7:15:09, 19-39.739N,119-40.154E,230.6,28.409,33.1564
5992,2003/10/19,7:16:09, 19-39.608N,119-40.001E,235.3,28.409,33.1559
5993,2003/10/19,7:17:09, 19-39.481N,119-39.845E,227.5,28.408,33.1565
5994,2003/10/19,7:18:09, 19-39.351N,119-39.694E,214.6,28.407,33.1579
5995,2003/10/19,7:19:09, 19-39.222N,119-39.538E,226.7,28.407,33.158
5996,2003/10/19,7:20:09, 19-39.100N,119-39.385E,231.2,28.405,33.1585
5997,2003/10/19,7:21:09, 19-38.965N,119-39.235E,225.3,28.407,33.1575
5998,2003/10/19,7:22:09, 19-38.836N,119-39.077E,239.8,28.407,33.1572
5999,2003/10/19,7:23:09, 19-38.708N,119-38.927E,225.7,28.409,33.1574
6000,2003/10/19,7:24:09, 19-38.581N,119-38.776E,239.8,28.411,33.1583
6001,2003/10/19,7:25:09, 19-38.458N,119-38.626E,226.9,28.414,33.1598
6002,2003/10/19,7:26:09, 19-38.328N,119-38.477E,233,28.413,33.1618
6003,2003/10/19,7:27:09, 19-38.201N,119-38.323E,228.8,28.408,33.1665
6004,2003/10/19,7:28:09, 19-38.071N,119-38.172E,229.7,28.404,33.1698
6005,2003/10/19,7:29:09, 19-37.948N,119-38.013E,229.8,28.404,33.1735
6006,2003/10/19,7:30:09, 19-37.815N,119-37.864E,226.7,28.398,33.1755
6007,2003/10/19,7:31:09, 19-37.692N,119-37.708E,228.4,28.392,33.1789
6008,2003/10/19,7:32:09, 19-37.564N,119-37.560E,226.7,28.39,33.1833
6009,2003/10/19,7:33:09, 19-37.440N,119-37.404E,229,28.385,33.187
6010,2003/10/19,7:34:09, 19-37.314N,119-37.256E,222.3,28.383,33.1895
6011,2003/10/19,7:35:09, 19-37.190N,119-37.111E,237.1,28.381,33.1921
6012,2003/10/19,7:36:09, 19-37.071N,119-36.959E,220.7,28.379,33.1957
6013,2003/10/19,7:37:09, 19-36.941N,119-36.810E,227.4,28.384,33.1975
6014,2003/10/19,7:38:09, 19-36.817N,119-36.651E,227.2,28.384,33.199
6015,2003/10/19,7:39:09, 19-36.688N,119-36.499E,221.9,28.387,33.1999
6016,2003/10/19,7:40:09, 19-36.558N,119-36.349E,230.1,28.385,33.1981
6017,2003/10/19,7:41:09, 19-36.436N,119-36.192E,230.5,28.386,33.1996
6018,2003/10/19,7:42:09, 19-36.305N,119-36.039E,222.6,28.381,33.1978
6019,2003/10/19,7:43:09, 19-36.179N,119-35.885E,232.4,28.375,33.1972
6020,2003/10/19,7:44:09, 19-36.054N,119-35.728E,231.8,28.369,33.198
6021,2003/10/19,7:45:09, 19-35.924N,119-35.578E,224.5,28.364,33.1994
6022,2003/10/19,7:46:09, 19-35.799N,119-35.428E,222.9,28.357,33.2033
6023,2003/10/19,7:47:09, 19-35.673N,119-35.286E,225.3,28.352,33.2061
6024,2003/10/19,7:48:09, 19-35.554N,119-35.138E,242.5,28.349,33.2101
6025,2003/10/19,7:49:09, 19-35.432N,119-34.997E,231.1,28.345,33.2133
6026,2003/10/19,7:50:09, 19-35.313N,119-34.845E,227.1,28.336,33.2127
6027,2003/10/19,7:51:09, 19-35.190N,119-34.695E,226.8,28.337,33.2144
6028,2003/10/19,7:52:09, 19-35.063N,119-34.548E,231.1,28.34,33.2153
6029,2003/10/19,7:53:09, 19-34.937N,119-34.393E,225.5,28.341,33.2133
6030,2003/10/19,7:54:09, 19-34.807N,119-34.244E,224.6,28.341,33.2116
6031,2003/10/19,7:55:09, 19-34.683N,119-34.090E,225.4,28.338,33.2108
6032,2003/10/19,7:56:09, 19-34.557N,119-33.935E,235.1,28.334,33.2115
6033,2003/10/19,7:57:09, 19-34.426N,119-33.777E,225.6,28.332,33.2119
6034,2003/10/19,7:58:09, 19-34.293N,119-33.617E,221.5,28.327,33.212
6035,2003/10/19,7:59:09, 19-34.158N,119-33.456E,234.2,28.324,33.2132
6036,2003/10/19,8:00:09, 19-34.028N,119-33.300E,231.9,28.318,33.2149
6037,2003/10/19,8:01:09, 19-33.895N,119-33.144E,230,28.307,33.2173
6038,2003/10/19,8:02:09, 19-33.762N,119-32.986E,227,28.295,33.2197
6039,2003/10/19,8:03:09, 19-33.632N,119-32.833E,228.5,28.289,33.2255
6040,2003/10/19,8:04:09, 19-33.498N,119-32.680E,225.4,28.282,33.2317
6041,2003/10/19,8:05:09, 19-33.364N,119-32.525E,226.5,28.275,33.2352
6042,2003/10/19,8:06:09, 19-33.234N,119-32.366E,227.9,28.268,33.2432
6043,2003/10/19,8:07:09, 19-33.102N,119-32.213E,214.3,28.263,33.2501
6044,2003/10/19,8:08:09, 19-32.969N,119-32.064E,230.4,28.252,33.2587
6047,2003/10/19,8:11:09, 19-32.586N,119-31.588E,227,28.222,33.2801
6048,2003/10/19,8:12:09, 19-32.464N,119-31.429E,232,28.212,33.2876
6049,2003/10/19,8:13:09, 19-32.327N,119-31.281E,224.2,28.209,33.2939
6051,2003/10/19,8:15:09, 19-32.060N,119-30.981E,220.2,28.221,33.3124
6052,2003/10/19,8:16:09, 19-31.941N,119-30.834E,234.5,28.23,33.3266
6053,2003/10/19,8:17:09, 19-31.823N,119-30.685E,216.1,28.24,33.3318
6054,2003/10/19,8:18:09, 19-31.683N,119-30.557E,219.8,28.245,33.3311
6055,2003/10/19,8:19:09, 19-31.546N,119-30.423E,224.5,28.244,33.3264
6056,2003/10/19,8:20:09, 19-31.408N,119-30.291E,213.4,28.24,33.3238
6057,2003/10/19,8:21:09, 19-31.273N,119-30.157E,223.3,28.242,33.3135
6058,2003/10/19,8:22:09, 19-31.134N,119-30.031E,227.8,28.239,33.3082
6059,2003/10/19,8:23:09, 19-31.004N,119-29.897E,220.9,28.239,33.3043
6060,2003/10/19,8:24:09, 19-30.867N,119-29.763E,220.8,28.233,33.3018
6061,2003/10/19,8:25:09, 19-30.730N,119-29.627E,222.2,28.23,33.3006
6063,2003/10/19,8:27:09, 19-30.455N,119-29.349E,225.1,28.22,33.2961
6064,2003/10/19,8:28:09, 19-30.318N,119-29.219E,223.5,28.213,33.2961
6065,2003/10/19,8:29:09, 19-30.184N,119-29.082E,222.7,28.205,33.2932
6066,2003/10/19,8:30:09, 19-30.052N,119-28.944E,229.8,28.198,33.2916
6067,2003/10/19,8:31:09, 19-29.914N,119-28.815E,224.7,28.198,33.2907
6068,2003/10/19,8:32:09, 19-29.782N,119-28.680E,225.6,28.197,33.2898
6069,2003/10/19,8:33:09, 19-29.643N,119-28.551E,225,28.195,33.2885
6071,2003/10/19,8:35:09, 19-29.364N,119-28.275E,224.9,28.19,33.2866
6072,2003/10/19,8:36:09, 19-29.221N,119-28.144E,223.5,28.19,33.2865
6073,2003/10/19,8:37:09, 19-29.081N,119-28.009E,224.5,28.188,33.2829
6074,2003/10/19,8:38:09, 19-28.948N,119-27.866E,227.1,28.187,33.2831
6075,2003/10/19,8:39:09, 19-28.817N,119-27.729E,225.2,28.188,33.2825
6076,2003/10/19,8:40:09, 19-28.693N,119-27.590E,229.5,28.189,33.2823
6077,2003/10/19,8:41:09, 19-28.554N,119-27.461E,230.8,28.188,33.2821
6078,2003/10/19,8:42:09, 19-28.431N,119-27.319E,225.7,28.187,33.2818
6079,2003/10/19,8:43:09, 19-28.297N,119-27.185E,229.8,28.192,33.2828
6080,2003/10/19,8:44:09, 19-28.167N,119-27.044E,220.6,28.198,33.282
6081,2003/10/19,8:45:09, 19-28.033N,119-26.901E,228.7,28.204,33.2818
6082,2003/10/19,8:46:09, 19-27.898N,119-26.755E,227.8,28.212,33.2812
6083,2003/10/19,8:47:09, 19-27.761N,119-26.614E,224.3,28.216,33.2804
6084,2003/10/19,8:48:09, 19-27.630N,119-26.472E,226.2,28.22,33.2807
6085,2003/10/19,8:49:09, 19-27.497N,119-26.330E,224.5,28.222,33.2784
6086,2003/10/19,8:50:09, 19-27.358N,119-26.190E,228,28.225,33.2788
6087,2003/10/19,8:51:09, 19-27.229N,119-26.038E,223.4,28.225,33.2772
6088,2003/10/19,8:52:09, 19-27.093N,119-25.896E,222.3,28.227,33.2765
6089,2003/10/19,8:53:09, 19-26.964N,119-25.752E,233.5,28.228,33.2768
6090,2003/10/19,8:54:09, 19-26.831N,119-25.615E,222.3,28.229,33.2764
6091,2003/10/19,8:55:09, 19-26.702N,119-25.468E,227.6,28.224,33.2765
6092,2003/10/19,8:56:09, 19-26.575N,119-25.323E,219.8,28.225,33.2781
6093,2003/10/19,8:57:09, 19-26.441N,119-25.178E,231.7,28.232,33.2786
6094,2003/10/19,8:58:09, 19-26.310N,119-25.024E,230.8,28.228,33.2783
6095,2003/10/19,8:59:09, 19-26.171N,119-24.879E,233.7,28.227,33.279
6096,2003/10/19,9:00:09, 19-26.046N,119-24.725E,228.5,28.227,33.2796
6097,2003/10/19,9:01:09, 19-25.907N,119-24.584E,227,28.23,33.2809
6098,2003/10/19,9:02:09, 19-25.787N,119-24.427E,231.9,28.231,33.2815
6099,2003/10/19,9:03:09, 19-25.662N,119-24.282E,223.8,28.239,33.2831
6100,2003/10/19,9:04:09, 19-25.538N,119-24.140E,243.2,28.245,33.2837
6101,2003/10/19,9:05:09, 19-25.418N,119-23.993E,221.8,28.246,33.2849
6102,2003/10/19,9:06:09, 19-25.295N,119-23.851E,237.1,28.249,33.286
6103,2003/10/19,9:07:09, 19-25.173N,119-23.700E,235.9,28.25,33.2863
6104,2003/10/19,9:08:09, 19-25.042N,119-23.552E,221.3,28.25,33.2894
6105,2003/10/19,9:09:09, 19-24.913N,119-23.397E,232.7,28.246,33.2905
6106,2003/10/19,9:10:09, 19-24.786N,119-23.240E,235.8,28.244,33.2914
6107,2003/10/19,9:11:09, 19-24.658N,119-23.087E,229.1,28.242,33.2907
6108,2003/10/19,9:12:09, 19-24.528N,119-22.929E,228.1,28.237,33.2912
6109,2003/10/19,9:13:09, 19-24.397N,119-22.772E,227.2,28.234,33.2915
6110,2003/10/19,9:14:09, 19-24.263N,119-22.614E,231.5,28.236,33.2905
6111,2003/10/19,9:15:09, 19-24.140N,119-22.456E,227.7,28.243,33.2898
6112,2003/10/19,9:16:09, 19-24.007N,119-22.308E,230.7,28.248,33.2918
6113,2003/10/19,9:17:09, 19-23.882N,119-22.150E,231.3,28.253,33.293
6114,2003/10/19,9:18:09, 19-23.755N,119-21.994E,222.8,28.259,33.2958
6115,2003/10/19,9:19:09, 19-23.628N,119-21.842E,227.7,28.26,33.2988
6116,2003/10/19,9:20:09, 19-23.500N,119-21.689E,231.7,28.261,33.3027
6117,2003/10/19,9:21:09, 19-23.373N,119-21.535E,229.8,28.262,33.3061
6118,2003/10/19,9:22:09, 19-23.244N,119-21.378E,235.7,28.266,33.311
6119,2003/10/19,9:23:09, 19-23.113N,119-21.220E,228.7,28.262,33.3142
6120,2003/10/19,9:24:09, 19-22.978N,119-21.062E,234.8,28.262,33.3144
6121,2003/10/19,9:25:09, 19-22.849N,119-20.903E,233.7,28.261,33.3195
6122,2003/10/19,9:26:09, 19-22.717N,119-20.747E,229.7,28.265,33.3224
6123,2003/10/19,9:27:09, 19-22.587N,119-20.588E,232.8,28.263,33.3264
6124,2003/10/19,9:28:09, 19-22.451N,119-20.431E,223.6,28.26,33.3315
6125,2003/10/19,9:29:09, 19-22.321N,119-20.271E,230.5,28.259,33.3345
6126,2003/10/19,9:30:09, 19-22.193N,119-20.113E,231.9,28.258,33.3355
6127,2003/10/19,9:31:09, 19-22.066N,119-19.951E,232.4,28.248,33.3408
6128,2003/10/19,9:32:09, 19-21.933N,119-19.791E,231.9,28.246,33.345
6129,2003/10/19,9:33:09, 19-21.801N,119-19.631E,223.4,28.246,33.3497
6130,2003/10/19,9:34:09, 19-21.669N,119-19.472E,228.8,28.245,33.3555
6131,2003/10/19,9:35:09, 19-21.537N,119-19.311E,229.3,28.245,33.361
6132,2003/10/19,9:36:09, 19-21.403N,119-19.152E,227.2,28.245,33.3641
6133,2003/10/19,9:37:09, 19-21.268N,119-18.993E,227.9,28.242,33.3676
6134,2003/10/19,9:38:09, 19-21.131N,119-18.833E,229.5,28.238,33.371
6135,2003/10/19,9:39:09, 19-20.998N,119-18.673E,234.2,28.232,33.3724
6136,2003/10/19,9:40:09, 19-20.867N,119-18.514E,228.2,28.234,33.3725
6137,2003/10/19,9:41:09, 19-20.735N,119-18.358E,224.7,28.237,33.3711
6138,2003/10/19,9:42:09, 19-20.598N,119-18.201E,227.9,28.236,33.3709
6139,2003/10/19,9:43:09, 19-20.463N,119-18.038E,235.4,28.241,33.3705
6140,2003/10/19,9:44:09, 19-20.326N,119-17.876E,224.3,28.244,33.3711
6141,2003/10/19,9:45:09, 19-20.191N,119-17.711E,223.9,28.245,33.3713
6142,2003/10/19,9:46:09, 19-20.058N,119-17.547E,226.7,28.244,33.3713
6143,2003/10/19,9:47:09, 19-19.920N,119-17.394E,220.1,28.244,33.3716
6144,2003/10/19,9:48:09, 19-19.792N,119-17.234E,233.6,28.244,33.3705
6145,2003/10/19,9:49:09, 19-19.657N,119-17.078E,230.2,28.242,33.3686
6146,2003/10/19,9:50:09, 19-19.531N,119-16.913E,226.9,28.239,33.3693
6147,2003/10/19,9:51:09, 19-19.399N,119-16.754E,224.6,28.241,33.368
6148,2003/10/19,9:52:09, 19-19.266N,119-16.592E,224,28.238,33.3679
6149,2003/10/19,9:53:09, 19-19.128N,119-16.433E,223.8,28.234,33.3679
6150,2003/10/19,9:54:09, 19-18.991N,119-16.267E,233.8,28.237,33.3675
6151,2003/10/19,9:55:09, 19-18.853N,119-16.102E,230.5,28.237,33.3661
6152,2003/10/19,9:56:09, 19-18.715N,119-15.938E,229.5,28.24,33.3665
6153,2003/10/19,9:57:09, 19-18.581N,119-15.770E,224.7,28.237,33.361
6154,2003/10/19,9:58:09, 19-18.441N,119-15.610E,226.1,28.239,33.3575
6155,2003/10/19,9:59:09, 19-18.303N,119-15.444E,230.7,28.241,33.3553
6156,2003/10/19,10:00:09, 19-18.167N,119-15.281E,225.4,28.244,33.3524
6157,2003/10/19,10:01:09, 19-18.030N,119-15.120E,229.4,28.244,33.3487
6158,2003/10/19,10:02:09, 19-17.899N,119-14.955E,223.1,28.247,33.3454
6159,2003/10/19,10:03:09, 19-17.763N,119-14.795E,226.1,28.247,33.3443
6160,2003/10/19,10:04:09, 19-17.631N,119-14.631E,231.5,28.244,33.3392
6161,2003/10/19,10:05:09, 19-17.486N,119-14.478E,224.3,28.245,33.3367
6162,2003/10/19,10:06:09, 19-17.358N,119-14.320E,229.1,28.244,33.3322
6163,2003/10/19,10:07:09, 19-17.223N,119-14.162E,225.2,28.243,33.327
6164,2003/10/19,10:08:09, 19-17.088N,119-14.000E,231.6,28.239,33.322
6165,2003/10/19,10:09:09, 19-16.955N,119-13.833E,224.3,28.238,33.3168
6166,2003/10/19,10:10:09, 19-16.815N,119-13.674E,233.2,28.241,33.314
6167,2003/10/19,10:11:09, 19-16.681N,119-13.510E,231.7,28.242,33.3085
6168,2003/10/19,10:12:09, 19-16.541N,119-13.347E,227.8,28.242,33.3044
6169,2003/10/19,10:13:09, 19-16.405N,119-13.181E,225.2,28.243,33.3005
6170,2003/10/19,10:14:09, 19-16.264N,119-13.020E,233.8,28.246,33.2986
6171,2003/10/19,10:15:09, 19-16.125N,119-12.854E,233.7,28.245,33.2975
6172,2003/10/19,10:16:09, 19-15.988N,119-12.687E,225.6,28.245,33.2969
6173,2003/10/19,10:17:09, 19-15.842N,119-12.532E,226,28.244,33.297
6174,2003/10/19,10:18:09, 19-15.698N,119-12.375E,219.5,28.244,33.2955
6175,2003/10/19,10:19:09, 19-15.555N,119-12.219E,225.4,28.24,33.2944
6176,2003/10/19,10:20:09, 19-15.408N,119-12.068E,227.2,28.248,33.2931
6177,2003/10/19,10:21:09, 19-15.263N,119-11.914E,224.7,28.252,33.2906
6178,2003/10/19,10:22:09, 19-15.120N,119-11.756E,228.1,28.251,33.2897
6179,2003/10/19,10:23:09, 19-14.972N,119-11.604E,223,28.254,33.2896
6180,2003/10/19,10:24:09, 19-14.830N,119-11.445E,224.7,28.253,33.2888
6181,2003/10/19,10:25:09, 19-14.686N,119-11.296E,232.9,28.253,33.2881
6182,2003/10/19,10:26:09, 19-14.558N,119-11.134E,231.4,28.25,33.2846
6183,2003/10/19,10:27:09, 19-14.420N,119-10.982E,230.6,28.246,33.2757
6184,2003/10/19,10:28:09, 19-14.285N,119-10.827E,229.7,28.241,33.2647
6185,2003/10/19,10:29:09, 19-14.150N,119-10.669E,228.1,28.246,33.2552
6186,2003/10/19,10:30:09, 19-14.011N,119-10.510E,225.9,28.248,33.2442
6187,2003/10/19,10:31:09, 19-13.868N,119-10.352E,234.1,28.248,33.2396
6188,2003/10/19,10:32:09, 19-13.723N,119-10.196E,225.3,28.25,33.236
6189,2003/10/19,10:33:09, 19-13.577N,119-10.043E,223.2,28.249,33.2334
6190,2003/10/19,10:34:09, 19-13.433N,119-09.886E,221,28.252,33.2325
6191,2003/10/19,10:35:09, 19-13.292N,119-09.727E,225.8,28.253,33.2326
6192,2003/10/19,10:36:09, 19-13.146N,119-09.570E,223.5,28.255,33.233
6193,2003/10/19,10:37:09, 19-13.005N,119-09.414E,232.9,28.263,33.2324
6194,2003/10/19,10:38:09, 19-12.866N,119-09.262E,225.5,28.266,33.233
6195,2003/10/19,10:39:09, 19-12.725N,119-09.107E,221.3,28.268,33.2329
6196,2003/10/19,10:40:09, 19-12.580N,119-08.953E,224.9,28.269,33.2326
6197,2003/10/19,10:41:09, 19-12.434N,119-08.799E,229.6,28.271,33.2339
6198,2003/10/19,10:42:09, 19-12.287N,119-08.646E,228.9,28.271,33.2347
6199,2003/10/19,10:43:09, 19-12.144N,119-08.492E,229.6,28.276,33.2347
6200,2003/10/19,10:44:09, 19-12.005N,119-08.338E,221.8,28.274,33.2361
6201,2003/10/19,10:45:09, 19-11.866N,119-08.187E,219.5,28.271,33.2362
6202,2003/10/19,10:46:09, 19-11.721N,119-08.043E,220.9,28.278,33.2365
6203,2003/10/19,10:47:09, 19-11.582N,119-07.890E,220.6,28.28,33.2386